UAL1 KSFO-WSSS

Flight info

Callsign UAL1
Flight time N/A
Altitude 32000
Route GNNRR3 AMAKR DCT REDWD DCT UNVER DCT 42N130W 46N140W/N0490F340 50N150W 51N160W 50N170W 46N180E/N0495F360 38N170E 33N160E 28N150E/N0488F380 23N140E 19N130E DCT OMDOB/N0484F400 DCT JOM M767 TOMAN KARTO2B
Aircraft B789/H-SDE1E2E3FGHIJ2J3J4J5M1RWXY/LB1D1

Departure

Time 2026-05-04 03:59
Airport San Francisco International Airport (KSFO)

Arrival

Time N/A
Airport Singapore Changi Airport (WSSS)
Time Latitude Longitude Altitude Speed Heading
2026-05-04 03:34 37.61895 -122.39253 27 ft 0 kts 208°
2026-05-04 03:47 37.61911 -122.39243 26 ft 4 kts 206°
2026-05-04 03:48 37.61934 -122.39226 25 ft 4 kts 225°
2026-05-04 03:48 37.61947 -122.39199 25 ft 4 kts 264°
2026-05-04 03:48 37.61943 -122.39169 25 ft 2 kts 297°
2026-05-04 03:48 37.61940 -122.39161 25 ft 0 kts 298°
2026-05-04 03:51 37.61940 -122.39162 25 ft 1 kts 298°
2026-05-04 03:51 37.61946 -122.39174 25 ft 3 kts 298°
2026-05-04 03:51 37.61962 -122.39212 25 ft 5 kts 300°
2026-05-04 03:52 37.61990 -122.39237 27 ft 4 kts 344°
2026-05-04 03:52 37.62026 -122.39235 27 ft 6 kts 10°
2026-05-04 03:52 37.62076 -122.39208 27 ft 10 kts 27°
2026-05-04 03:52 37.62138 -122.39166 26 ft 11 kts 28°
2026-05-04 03:53 37.62201 -122.39123 27 ft 10 kts 32°
2026-05-04 03:53 37.62237 -122.39057 27 ft 9 kts 66°
2026-05-04 03:53 37.62259 -122.38973 27 ft 11 kts 73°
2026-05-04 03:53 37.62252 -122.38889 27 ft 9 kts 112°
2026-05-04 03:54 37.62215 -122.38798 27 ft 14 kts 118°
2026-05-04 03:54 37.62162 -122.38671 27 ft 19 kts 117°
2026-05-04 03:54 37.62093 -122.38508 26 ft 23 kts 117°
2026-05-04 03:54 37.62010 -122.38310 27 ft 28 kts 118°
2026-05-04 03:55 37.61917 -122.38089 26 ft 28 kts 118°
2026-05-04 03:55 37.61833 -122.37881 27 ft 26 kts 112°
2026-05-04 03:55 37.61768 -122.37673 27 ft 25 kts 111°
2026-05-04 03:55 37.61701 -122.37469 27 ft 25 kts 117°
2026-05-04 03:56 37.61621 -122.37279 27 ft 24 kts 117°
2026-05-04 03:56 37.61543 -122.37093 27 ft 25 kts 117°
2026-05-04 03:56 37.61455 -122.36909 27 ft 24 kts 130°
2026-05-04 03:56 37.61353 -122.36752 27 ft 22 kts 119°
2026-05-04 03:57 37.61282 -122.36584 27 ft 21 kts 118°
2026-05-04 03:57 37.61214 -122.36422 27 ft 21 kts 118°
2026-05-04 03:57 37.61146 -122.36262 27 ft 20 kts 118°
2026-05-04 03:57 37.61078 -122.36100 27 ft 21 kts 118°
2026-05-04 03:58 37.61183 -122.35899 27 ft 15 kts 328°
2026-05-04 03:58 37.61259 -122.36046 27 ft 32 kts 298°
2026-05-04 03:58 37.61453 -122.36510 27 ft 90 kts 297°
2026-05-04 03:59 37.61834 -122.37415 27 ft 143 kts 298°
2026-05-04 03:59 37.62372 -122.38693 47 ft 182 kts 296°
2026-05-04 03:59 37.62969 -122.40044 724 ft 178 kts 300°
2026-05-04 03:59 37.63595 -122.41500 1279 ft 193 kts 295°
2026-05-04 04:00 37.64203 -122.43005 2057 ft 199 kts 295°
2026-05-04 04:00 37.64889 -122.44628 2309 ft 222 kts 298°
2026-05-04 04:00 37.65727 -122.46447 2502 ft 252 kts 298°
2026-05-04 04:00 37.66585 -122.48336 3413 ft 251 kts 297°
2026-05-04 04:01 37.67465 -122.50289 4160 ft 260 kts 301°
2026-05-04 04:01 37.68601 -122.52104 4880 ft 267 kts 307°
2026-05-04 04:01 37.69711 -122.54057 5512 ft 278 kts 303°
2026-05-04 04:01 37.70439 -122.55371 6113 ft 278 kts 304°
2026-05-04 04:02 37.71608 -122.57384 6816 ft 286 kts 306°
2026-05-04 04:02 37.72811 -122.59392 7633 ft 288 kts 306°
2026-05-04 04:02 37.74019 -122.61432 8373 ft 292 kts 306°
2026-05-04 04:02 37.75235 -122.63507 9177 ft 295 kts 306°